Paducah, KY

5:50 AM CDT on May 29, 2017 (GMT -0500)
Barkley Regional

Weather History for KPAH - September, 2013

Change the Weather History Date:

Monday, September 16, 2013

  Actual Average Record
Temperature  
Mean Temperature 69 °F 70 °F  
Max Temperature 77 °F 82 °F 96 °F (1939)
Min Temperature 61 °F 58 °F 44 °F (1966)
Degree Days  
Heating Degree Days 0 1  
Month to date heating degree days 2 4  
Since 1 July heating degree days 2 5  
Cooling Degree Days 4 6  
Month to date cooling degree days 161 129  
Year to date cooling degree days 1335 1442  
Growing Degree Days 19 (Base 50)    
Moisture  
Dew Point 61 °F    
Average Humidity 76    
Maximum Humidity 87    
Minimum Humidity 64    
Precipitation  
Precipitation 0.01 in 0.13 in 1.38 in (1995)
Month to date precipitation 0.27 1.91  
Year to date precipitation 41.04 34.39  
Snow  
Snow 0.00 in 0.00 in 0.00 in (2002)
Month to date snowfall 0.0 0.0  
Since 1 July snowfall 0.0 0.0  
Since 1 September snowfall 0.0 0.0  
Snow Depth 0.00 in    
Sea Level Pressure  
Sea Level Pressure 30.16 in    
Wind  
Wind Speed 5 mph (NNE)    
Max Wind Speed 13 mph    
Max Gust Speed 23 mph    
Visibility 10 miles    
Events      
T = Trace of Precipitation, MM = Missing Value Source: NWS Daily Summary

Daily Weather History Graph

Daily Weather History Graph

Search for Another Location

Airport or City:

Trip Planner

Search our weather history database for the weather conditions in past years. The results will help you decide how hot, cold, wet, or windy it might be!

Date:

Astronomy

Sep. 16, 2013 Rise Set
Actual Time 6:38 AM CDT 7:00 PM CDT
Civil Twilight 6:12 AM CDT 7:26 PM CDT
Nautical Twilight 5:41 AM CDT 7:57 PM CDT
Astronomical Twilight 5:10 AM CDT 8:28 PM CDT
Moon 5:07 PM CDT (9/16) 3:27 AM CDT (9/16)
Length of Visible Light 13h 14m
Length of Day
12h 22m
Waxing Gibbous, 90% of the Moon is Illuminated
Sep 16
Waxing Gibbous
Sep 19
Full
Sep 26
Last Quarter
Oct 4
New
Oct 11
First Quarter

Hourly Weather History & Observations

Time (CDT) Temp. Dew Point Humidity Pressure Visibility Wind Dir Wind Speed Gust Speed Precip Events Conditions
12:53 AM 64.0 °F 57.0 °F 78% 30.09 in 10.0 mi Calm Calm - N/A   Clear
1:53 AM 62.1 °F 57.0 °F 84% 30.09 in 10.0 mi Calm Calm - N/A   Scattered Clouds
2:53 AM 62.1 °F 57.9 °F 86% 30.09 in 10.0 mi Calm Calm - N/A   Clear
3:53 AM 63.0 °F 57.9 °F 84% 30.09 in 10.0 mi Calm Calm - N/A   Mostly Cloudy
4:53 AM 64.0 °F 59.0 °F 84% 30.10 in 10.0 mi SW 3.5 mph - N/A   Mostly Cloudy
5:53 AM 64.0 °F 59.0 °F 84% 30.11 in 10.0 mi Calm Calm - 0.01 in   Overcast
6:53 AM 66.0 °F 59.0 °F 78% 30.14 in 10.0 mi Calm Calm - N/A   Overcast
7:53 AM 68.0 °F 61.0 °F 78% 30.15 in 10.0 mi North 5.8 mph - N/A   Overcast
8:53 AM 71.1 °F 62.1 °F 73% 30.16 in 10.0 mi NNE 8.1 mph - N/A   Partly Cloudy
9:53 AM 72.0 °F 62.1 °F 71% 30.17 in 10.0 mi NNE 9.2 mph - N/A   Mostly Cloudy
10:38 AM 71.6 °F 62.6 °F 73% 30.20 in 10.0 mi NNE 9.2 mph 23.0 mph N/A   Mostly Cloudy
10:53 AM 70.0 °F 62.1 °F 76% 30.19 in 10.0 mi NE 8.1 mph - N/A   Overcast
11:03 AM 69.8 °F 62.6 °F 78% 30.20 in 10.0 mi North - - N/A   Overcast
11:37 AM 71.6 °F 62.6 °F 73% 30.20 in 10.0 mi NNE 8.1 mph - N/A   Scattered Clouds
11:53 AM 73.0 °F 63.0 °F 71% 30.19 in 10.0 mi NNE 9.2 mph - N/A   Scattered Clouds
12:09 PM 71.6 °F 62.6 °F 73% 30.20 in 10.0 mi NNE 8.1 mph - N/A   Mostly Cloudy
12:45 PM 71.6 °F 62.6 °F 73% 30.20 in 10.0 mi North 8.1 mph - N/A   Overcast
12:53 PM 72.0 °F 63.0 °F 73% 30.19 in 10.0 mi North 6.9 mph - N/A   Mostly Cloudy
1:53 PM 75.9 °F 63.0 °F 64% 30.19 in 10.0 mi North 6.9 mph - N/A   Mostly Cloudy
2:31 PM 75.2 °F 62.6 °F 65% 30.18 in 10.0 mi North 5.8 mph - N/A   Overcast
2:53 PM 75.9 °F 63.0 °F 64% 30.17 in 10.0 mi North 9.2 mph - N/A   Overcast
3:07 PM 75.2 °F 62.6 °F 65% 30.17 in 10.0 mi NNE 3.5 mph - N/A   Overcast
3:45 PM 75.2 °F 64.4 °F 69% 30.16 in 10.0 mi North 8.1 mph - N/A   Overcast
3:53 PM 75.0 °F 63.0 °F 66% 30.15 in 10.0 mi North 6.9 mph - N/A   Overcast
4:53 PM 75.0 °F 63.0 °F 66% 30.15 in 10.0 mi NE 8.1 mph - N/A   Overcast
5:53 PM 75.0 °F 63.0 °F 66% 30.14 in 10.0 mi NNE 6.9 mph - N/A   Partly Cloudy
6:53 PM 73.0 °F 63.0 °F 71% 30.14 in 10.0 mi North 4.6 mph - N/A   Clear
7:53 PM 70.0 °F 61.0 °F 73% 30.15 in 10.0 mi NNE 6.9 mph - N/A   Clear
8:53 PM 69.1 °F 61.0 °F 75% 30.17 in 10.0 mi NNE 6.9 mph - N/A   Mostly Cloudy
9:53 PM 66.9 °F 60.1 °F 79% 30.17 in 10.0 mi NNE 5.8 mph - N/A   Scattered Clouds
10:53 PM 66.0 °F 60.1 °F 81% 30.19 in 10.0 mi NE 4.6 mph - N/A   Partly Cloudy
11:53 PM 64.9 °F 60.1 °F 84% 30.19 in 10.0 mi NE 5.8 mph - N/A   Clear